Vorticity
5 6 17 16 9 10 15 15 15 12 7 8 8 9 11 10 9 10 9 10 5 7 6 21 2 10 5 15 3 -10 -4 10 8 4 8 -3 4 7 6 13 13 -11 3 6 4
6 7 21 13 7 12 15 18 12 4 9 13 14 10 11 10 16 15 10 12 7 7 10 17 11 -24 52 35 11 -3 -12 10 5 16 12 -2 10 -1 -2 23 4 -2 -0 -6 6
6 10 20 10 9 12 15 14 7 5 11 11 12 6 18 19 12 8 15 17 25 14 7 5 35 10 3 20 23 -2 16 -6 15 5 9 9 9 7 -6 6 8 7 2 3 8
7 14 19 8 9 12 17 10 7 3 8 13 9 8 14 32 4 2 14 16 18 20 27 9 24 18 -3 -37 -13 23 -9 3 24 -3 15 14 16 1 -14 14 -8 7 2 6 8
8 17 16 9 9 10 17 9 7 6 12 11 6 8 10 6 3 11 13 14 19 12 27 14 20 -51 35 -6 35 6 35 5 4 -6 26 16 -5 2 7 4 11 15 -3 19 7
9 20 13 11 9 10 16 10 8 10 11 13 2 8 5 3 7 6 12 16 16 25 21 7 21 -1 12 21 -7 56 12 4 11 35 -3 20 9 3 -0 6 5 8 16 8 3
12 21 13 12 9 12 13 12 9 13 11 9 3 11 -0 1 5 15 11 11 23 48 23 14 16 10 -11 1 3 66 20 -12 12 12 20 9 4 2 15 -0 5 2 15 6 2
16 18 13 12 11 12 11 10 7 3 10 11 7 14 3 3 9 12 11 14 14 26 13 15 16 1 32 4 35 10 7 -13 13 20 11 2 8 -0 9 8 4 -3 15 5 4
18 12 16 11 13 16 12 7 5 14 8 19 5 15 5 8 11 12 7 20 17 17 29 18 16 -19 -7 35 10 -0 69 -21 15 24 -4 -2 19 -5 12 13 11 -9 6 8 3
16 11 16 8 12 16 17 12 5 14 23 40 24 15 3 9 6 7 18 20 -1 28 5 -6 17 -6 14 19 15 28 6 2 10 22 25 -11 16 -3 2 10 9 -1 3 14 3
14 11 10 11 7 13 20 12 -0 -3 18 24 13 17 8 12 14 14 14 20 2 9 4 46 28 3 2 11 31 12 83 20 7 -1 25 -5 23 14 6 6 6 9 3 15 3
13 8 17 9 7 8 23 15 5 7 2 15 12 14 21 11 13 15 16 10 9 21 26 21 24 -20 76 14 -43 46 -2 28 13 2 24 -8 14 2 10 9 3 -0 16 9 5
8 11 7 12 10 5 11 17 5 10 -7 8 19 7 11 9 28 19 7 19 -0 -2 23 1 16 5 -5 46 -7 32 3 11 19 8 16 10 -6 16 18 5 -0 7 9 13 2
3 15 7 13 12 15 5 12 11 14 -3 -5 20 10 16 9 6 4 11 5 21 9 -17 25 9 2 7 23 31 13 1 -3 9 1 12 -9 42 5 16 -0 7 4 2 7 5
10 11 9 9 8 13 14 -4 19 19 1 16 7 26 19 21 34 15 8 2 5 17 37 11 38 23 21 27 14 18 -1 28 19 -4 6 26 -27 43 14 4 7 13 9 4 6
5 4 16 8 10 6 17 12 9 13 -5 11 24 7 11 -7 4 22 17 -3 1 35 4 2 4 7 18 11 -4 34 20 19 7 -7 -23 12 -25 67 -1 10 2 14 1 1 7
10 8 9 9 11 11 7 15 3 19 3 -8 1 16 17 14 30 7 2 26 12 -22 10 8 23 46 12 4 20 8 -23 -3 1 5 7 2 5 -36 12 12 1 3 -1 9 2
19 8 8 18 9 7 -1 10 14 15 23 2 11 -4 11 9 4 8 20 -3 8 26 -10 17 -1 -20 21 23 32 -16 -10 6 8 8 25 15 17 -37 27 13 26 10 12 13 9
19 8 7 6 5 18 7 10 13 2 12 2 -4 -2 9 2 10 6 9 -7 9 -17 19 8 34 7 19 7 -15 11 -19 -2 9 4 -17 7 14 26 9 8 22 16 7 10 17
11 14 14 12 19 5 22 17 7 6 1 -4 8 14 -2 5 9 7 9 8 6 17 -8 26 13 22 9 -3 -22 28 -11 6 15 6 7 44 4 11 5 -2 13 8 9 6 6
8 13 12 12 13 18 11 21 5 3 8 7 7 15 2 2 7 9 11 23 -2 -3 13 -2 19 15 7 9 5 4 8 -8 -8 -1 -1 11 42 -2 19 -6 9 8 11 6 3
10 12 8 16 10 12 12 8 9 12 6 9 9 -0 7 -0 11 12 11 4 -6 17 20 -6 20 10 7 -3 12 5 15 -4 -17 33 3 2 42 33 15 -1 6 16 4 9 4
10 11 7 10 12 16 10 9 9 7 7 11 -0 8 8 9 10 19 20 1 11 5 8 6 29 9 32 16 5 -0 3 5 -9 -38 9 -22 33 23 15 11 -0 15 5 15 6
12 10 11 -1 4 14 16 14 9 11 14 12 5 10 8 7 7 4 22 10 17 9 6 10 25 -9 5 -16 47 -3 -7 -1 7 6 -4 12 -20 36 23 11 8 12 11 2 21
9 10 10 1 4 6 13 15 12 9 11 6 17 15 8 7 12 10 14 7 11 15 1 1 3 7 -9 1 22 28 20 -0 -11 1 -12 23 10 11 9 21 37 18 4 9 6
6 9 10 5 -1 5 9 6 15 13 7 10 10 7 12 16 6 -14 13 17 -6 19 9 8 8 21 9 -2 1 13 -9 24 24 9 -0 -8 -2 -14 -6 22 -11 1 35 45 6
5 6 2 7 7 4 9 3 7 11 20 18 10 9 10 8 10 14 14 10 -0 19 16 1 12 9 29 21 10 37 6 6 -0 1 8 6 6 -3 -17 1 2 -0 5 -6 3
Height
3049 3044 3037 3030 3025 3020 3015 3011 3008 3006 3004 3002 3000 2998 2996 2996 2996 2997 2997 2999 3000 3001 3003 3008 3015 3023 3032 3039 3045 3054 3059 3063 3070 3079 3088 3097 3101 3107 3109 3110 3116 3119 3121 3127 3130
3046 3040 3032 3027 3022 3017 3013 3009 3007 3005 3002 3000 2998 2995 2994 2993 2993 2993 2993 2994 2996 2999 3001 3006 3011 3015 3024 3031 3040 3045 3051 3057 3070 3081 3087 3093 3097 3103 3106 3107 3113 3114 3123 3125 3129
3044 3036 3029 3024 3019 3015 3012 3008 3006 3004 3001 2998 2996 2994 2991 2990 2991 2989 2990 2990 2990 2994 2998 3003 3007 3013 3020 3027 3033 3042 3047 3059 3069 3078 3087 3089 3095 3100 3104 3107 3111 3116 3121 3124 3128
3041 3033 3027 3022 3017 3014 3010 3007 3004 3002 2999 2996 2995 2993 2990 2989 2992 2988 2988 2987 2987 2989 2993 2998 3003 3008 3014 3023 3031 3039 3047 3059 3068 3076 3084 3086 3093 3099 3103 3107 3110 3113 3120 3123 3126
3038 3031 3025 3020 3016 3013 3009 3006 3003 3000 2998 2995 2994 2993 2991 2990 2990 2987 2986 2984 2985 2986 2988 2994 3001 3006 3013 3020 3028 3036 3046 3056 3065 3071 3081 3083 3091 3097 3103 3106 3107 3112 3118 3121 3124
3037 3029 3023 3020 3015 3012 3009 3005 3002 2999 2996 2995 2993 2993 2992 2992 2988 2985 2982 2982 2981 2982 2986 2992 2998 3005 3012 3020 3023 3033 3045 3055 3059 3066 3076 3079 3089 3096 3100 3102 3105 3111 3116 3119 3123
3036 3028 3022 3019 3015 3011 3008 3005 3002 2998 2996 2994 2994 2993 2991 2992 2988 2984 2981 2980 2979 2979 2984 2990 2995 3002 3009 3018 3025 3031 3045 3050 3055 3064 3071 3079 3089 3093 3098 3098 3104 3109 3113 3118 3121
3035 3028 3022 3018 3014 3011 3008 3005 3002 2999 2996 2993 2993 2993 2992 2989 2987 2984 2981 2980 2979 2979 2984 2990 2995 3006 3010 3017 3027 3031 3045 3048 3055 3062 3069 3076 3084 3090 3095 3097 3102 3107 3111 3116 3120
3035 3029 3023 3019 3015 3011 3008 3005 3003 2998 2994 2991 2992 2991 2992 2990 2988 2983 2981 2980 2980 2982 2985 2990 2996 3006 3012 3017 3026 3030 3029 3046 3054 3060 3068 3075 3081 3086 3090 3094 3099 3105 3109 3113 3118
3036 3030 3024 3020 3016 3012 3008 3006 3003 2998 2993 2989 2991 2995 2992 2990 2987 2984 2982 2982 2982 2982 2988 2993 2998 3005 3010 3016 3025 3027 3034 3044 3051 3059 3066 3072 3079 3084 3088 3091 3097 3102 3106 3111 3117
3037 3031 3025 3021 3017 3013 3009 3006 3006 3001 2996 2991 2992 2992 2991 2991 2988 2985 2985 2984 2983 2986 2989 2993 2999 3009 3012 3022 3027 3031 3036 3047 3054 3058 3067 3072 3077 3081 3087 3088 3094 3099 3105 3110 3114
3040 3033 3027 3022 3018 3016 3011 3007 3005 3006 2999 2996 2995 2994 2992 2991 2990 2988 2988 2988 2988 2986 2986 2994 3003 3015 3018 3022 3027 3034 3038 3043 3053 3059 3066 3073 3078 3082 3086 3089 3094 3097 3102 3107 3111
3043 3036 3029 3023 3020 3017 3013 3010 3006 3004 3003 3001 2999 2997 2995 2995 2992 2991 2993 2991 2990 2991 2991 2998 3007 3015 3019 3024 3035 3037 3042 3046 3053 3057 3066 3072 3079 3080 3085 3088 3091 3095 3100 3106 3110
3045 3039 3033 3027 3024 3018 3015 3012 3008 3006 3006 3009 3001 3000 3001 2998 2997 2997 2998 2997 2995 2999 3003 3007 3012 3017 3022 3028 3034 3038 3044 3049 3054 3056 3061 3069 3077 3079 3082 3085 3086 3093 3098 3103 3107
3048 3042 3036 3030 3026 3021 3019 3015 3011 3010 3011 3015 3010 3007 3004 3004 3006 3005 3004 3002 3000 3002 3006 3015 3021 3021 3024 3030 3035 3041 3048 3053 3055 3059 3063 3069 3075 3077 3080 3083 3085 3091 3095 3101 3106
3049 3045 3039 3034 3031 3026 3022 3017 3017 3018 3020 3022 3014 3013 3013 3009 3009 3009 3008 3007 3007 3007 3010 3016 3020 3024 3026 3029 3035 3043 3049 3056 3058 3061 3066 3069 3075 3074 3075 3077 3083 3089 3094 3098 3103
3050 3045 3041 3037 3034 3030 3026 3023 3020 3021 3028 3025 3020 3018 3017 3015 3011 3013 3011 3012 3010 3016 3016 3017 3017 3021 3028 3031 3038 3042 3051 3054 3063 3067 3068 3067 3073 3075 3074 3076 3080 3085 3090 3096 3100
3051 3046 3042 3039 3036 3033 3030 3028 3022 3027 3026 3025 3023 3022 3021 3019 3017 3015 3016 3014 3016 3019 3021 3022 3025 3021 3026 3030 3033 3042 3047 3050 3059 3064 3062 3065 3064 3068 3069 3071 3076 3083 3088 3092 3095
3052 3047 3043 3039 3036 3034 3033 3029 3027 3027 3028 3027 3026 3024 3024 3024 3023 3020 3019 3021 3025 3025 3026 3029 3031 3031 3032 3036 3041 3045 3049 3051 3052 3056 3060 3062 3063 3067 3068 3071 3073 3077 3083 3086 3091
3053 3048 3043 3039 3036 3034 3033 3030 3027 3027 3027 3028 3029 3027 3025 3024 3025 3024 3024 3023 3024 3027 3028 3029 3034 3036 3036 3038 3041 3043 3048 3048 3047 3056 3060 3057 3058 3057 3061 3064 3068 3072 3078 3082 3087
3053 3048 3043 3039 3037 3035 3032 3030 3028 3026 3027 3028 3027 3028 3027 3025 3024 3024 3024 3025 3025 3027 3028 3031 3034 3037 3037 3037 3038 3042 3043 3045 3048 3047 3048 3053 3051 3052 3055 3059 3063 3068 3073 3077 3080
3052 3048 3044 3039 3038 3033 3031 3029 3027 3026 3026 3025 3026 3027 3027 3027 3026 3024 3022 3022 3023 3026 3028 3029 3032 3035 3037 3037 3038 3038 3040 3042 3042 3042 3041 3041 3042 3046 3051 3056 3060 3064 3067 3072 3075
3049 3047 3043 3039 3036 3032 3030 3028 3026 3025 3024 3024 3024 3024 3025 3026 3026 3023 3022 3022 3022 3023 3025 3026 3027 3031 3038 3039 3036 3035 3036 3036 3038 3039 3038 3040 3038 3041 3044 3047 3052 3056 3058 3064 3069
3047 3043 3042 3038 3034 3032 3029 3027 3025 3023 3022 3022 3022 3021 3021 3023 3023 3022 3022 3022 3022 3022 3023 3024 3024 3025 3026 3029 3030 3030 3033 3035 3037 3036 3035 3033 3036 3038 3040 3042 3044 3048 3053 3058 3062
3042 3041 3037 3036 3033 3030 3028 3026 3024 3023 3020 3019 3018 3018 3018 3018 3018 3018 3018 3019 3020 3020 3021 3022 3021 3022 3022 3022 3023 3025 3026 3028 3030 3031 3032 3034 3035 3038 3039 3040 3043 3046 3049 3052 3056
3039 3036 3035 3032 3030 3028 3026 3023 3021 3019 3018 3016 3015 3014 3014 3014 3014 3014 3014 3014 3016 3017 3018 3018 3018 3018 3017 3019 3019 3019 3021 3022 3023 3026 3026 3030 3031 3032 3035 3037 3039 3041 3041 3044 3048
3032 3032 3029 3028 3026 3024 3023 3020 3017 3016 3015 3013 3013 3011 3011 3011 3010 3010 3010 3011 3012 3012 3013 3015 3015 3015 3014 3014 3013 3012 3010 3015 3016 3019 3019 3024 3023 3029 3030 3032 3034 3036 3038 3040 3044